Location: Paddlesworth
(51.1000°N, 1.1333°E)
Time: 07:30:58
(UTC+00:00)

SL-8 Rocket - Pass Details

Date: 11 May 2021
Orbit: 957 x 990 km, 82.9° (Epoch: 20 June)

Event Time Altitude Azimuth Distance (km) Brightness Sun altitude
Rises 22:29:27 0° 350° (N) 3,718 8.6 -18.5°
Reaches altitude 10° 22:32:00 10° 351° (N) 2,765 7.6 -18.6°
Maximum altitude 22:38:22 83° 80° (E) 1,004 4.0 -18.9°
Enters shadow 22:41:31 32° 166° (SSE) 1,624 4.6 -19.1°
